Tracking 25710 objects as of 7-Jul-2022
HD Live streaming from Space Station
objects crossing your sky now

FENGYUN 1C DEB

Track FENGYUN 1C DEB now!
10-day predictions


NORAD ID: 32210
Int'l Code: 1999-025CVG
Perigee: 828.9 km
Apogee: 942.6 km
Inclination: 99.0 °
Period: 102.5 minutes
Semi major axis: 7256 km
RCS: 0.0144 m2 (small)
Launch date: May 10, 1999
Source: People's Republic of China (PRC)
Launch site: Taiyaun Space Center, China (TSC)

Note: This is SATELLITE DEBRIS
aabbcc
Your satellite tracking list
Your tracking list is empty




NASA's NSSDC Master Catalog

Two Line Element Set (TLE):
1 32210U 99025CVG 22180.34918005  .00001083  00000-0  68861-3 0  9990
2 32210  98.9838 227.6389 0078319 109.6884 251.2754 14.04393027436288
Source of the keplerian elements: AFSPC